Probability
0 0 0 0 0 0 0 0 0 0 0 0 0 0 0 0 0 0 0 0 0 0 0 0 0 0 0 0 0 0 0 0 0 0 0 0 0 0 0 0 0 0 0
0 0 0 0 0 0 0 0 0 0 0 0 0 0 0 0 0 0 0 0 0 0 0 0 0 0 0 0 0 0 0 0 0 0 0 0 0 0 0 0 0 0 0
0 0 0 0 0 0 0 0 0 0 0 0 0 0 0 0 0 0 0 0 0 0 0 0 0 0 0 0 0 0 0 0 0 0 0 0 0 0 0 0 0 0 0
0 0 0 0 0 0 0 0 0 0 0 0 0 0 0 0 0 0 0 0 0 0 0 0 0 0 0 0 0 0 0 0 0 0 0 0 0 0 0 0 0 0 0
0 0 0 0 0 0 0 0 0 0 0 0 0 0 0 0 0 0 0 0 0 0 0 0 0 0 0 0 0 0 0 0 0 0 0 0 0 0 0 0 0 0 0
0 0 0 0 0 0 0 0 0 0 0 0 0 0 0 0 0 0 0 0 0 0 0 0 0 0 0 0 0 0 0 0 0 0 0 0 0 0 0 0 0 0 0
0 0 0 0 0 0 0 0 0 0 0 0 0 0 0 0 0 0 0 0 0 0 0 0 0 0 0 0 0 0 0 0 0 0 0 0 0 0 0 0 0 0 0
0 0 0 0 0 0 0 0 0 0 0 0 0 0 0 0 0 0 0 0 0 0 0 0 0 0 0 0 0 0 0 0 0 0 0 0 0 0 0 0 0 0 0
0 0 0 0 0 0 0 0 0 0 0 0 0 0 0 0 0 0 0 0 0 0 0 0 0 0 0 0 0 0 0 0 0 0 0 0 0 0 0 0 0 0 0
0 0 0 0 0 0 0 0 0 0 0 0 0 0 0 0 0 0 0 0 0 0 0 0 0 0 0 0 0 0 0 0 0 0 0 0 0 0 0 0 0 0 0
0 0 0 0 0 0 0 0 0 0 0 0 0 0 0 0 0 0 0 0 0 0 0 0 0 0 0 0 0 0 0 0 0 0 0 0 0 0 0 0 0 0 0
0 0 0 0 0 0 0 0 0 0 0 0 0 0 0 0 0 0 0 0 0 0 0 0 0 0 0 0 0 0 0 0 0 0 0 0 0 0 0 0 0 0 0
0 0 0 0 0 0 0 0 0 0 0 0 0 0 0 0 0 0 0 0 0 0 0 0 0 0 0 0 0 0 0 0 0 0 0 0 0 0 0 0 0 0 0
0 0 0 0 0 0 0 0 0 0 0 0 0 0 0 0 0 0 0 0 0 0 0 0 0 0 0 0 0 0 0 0 0 0 0 0 0 0 0 0 0 0 0
0 0 0 0 0 0 0 0 0 0 0 0 0 0 0 0 0 0 0 0 0 0 0 0 0 0 0 0 0 0 0 0 0 0 0 0 0 0 0 0 0 0 0
0 0 0 0 0 0 0 0 0 0 0 0 0 0 0 0 0 0 0 0 0 0 0 0 0 0 0 0 0 0 0 0 0 0 0 0 0 0 0 0 0 0 0
0 0 0 0 0 0 0 0 0 0 0 0 0 0 0 0 0 0 0 0 0 0 0 0 0 0 0 0 0 0 0 0 0 0 0 0 0 0 0 0 0 0 0
0 0 0 0 0 0 0 0 0 0 0 0 0 0 0 0 0 0 0 0 0 0 0 0 0 0 0 0 0 0 0 0 0 0 0 0 0 0 0 0 0 0 0
0 0 0 0 0 0 0 0 0 0 0 0 0 0 0 0 0 0 0 0 0 0 0 0 0 0 0 0 0 0 0 0 0 0 0 0 0 0 0 0 0 0 0
0 0 0 0 0 0 0 0 0 0 0 0 0 0 0 0 0 0 0 0 0 0 0 0 0 0 0 0 0 0 0 0 0 0 0 0 0 0 0 0 0 0 0
0 0 0 0 0 0 0 0 0 0 0 0 0 0 0 0 0 0 0 0 0 0 0 0 0 0 0 0 0 0 0 0 0 0 0 0 0 0 0 0 0 0 0
0 0 0 0 0 0 0 0 0 0 0 0 0 0 0 0 0 0 0 0 0 0 0 0 0 0 0 0 0 0 0 0 0 0 0 0 0 0 0 0 0 0 0
0 0 0 0 0 0 0 0 0 0 0 0 0 0 0 0 0 0 0 0 0 0 0 0 0 0 0 0 0 0 0 0 0 0 0 0 0 0 0 0 0 0 0
0 0 0 0 0 0 0 0 0 0 0 0 0 0 0 0 0 0 0 0 0 0 0 0 0 0 0 0 0 0 0 0 0 0 0 0 0 0 0 0 0 0 0
0 0 0 0 0 0 0 0 0 0 0 0 0 0 0 0 0 0 0 0 0 0 0 0 0 0 0 0 0 0 0 0 0 0 0 0 0 0 0 0 0 0 0
0 0 0 0 0 0 0 0 0 0 0 0 0 0 0 0 0 0 0 0 0 0 0 0 0 0 0 0 0 0 0 0 0 0 0 0 0 0 0 0 0 0 0
Wind_Speed
4 2 8 11 12 12 12 14 14 14 12 10 11 11 11 8 7 8 11 13 12 13 12 9 9 9 9 9 9 7 7 6 4 2 4 5 8 9 8 7 6 7 7
7 4 2 7 10 11 11 12 13 14 13 11 9 7 7 6 7 7 10 13 14 14 14 13 11 11 9 11 11 9 7 6 7 5 3 4 5 8 10 7 7 7 6
6 5 2 4 7 9 11 10 12 12 12 10 6 5 5 5 8 10 10 12 14 15 14 15 13 12 12 12 14 12 12 9 8 7 6 5 7 3 3 7 7 7 6
5 5 3 2 5 7 8 9 10 10 11 11 10 11 11 14 14 9 8 10 14 15 15 15 15 14 12 13 14 14 11 10 8 7 8 6 5 4 3 3 5 8 8
6 4 2 1 3 5 6 7 8 9 10 12 12 12 13 13 7 8 10 12 12 15 16 16 15 15 13 14 13 14 14 12 11 8 6 7 6 5 5 5 5 5 6
7 6 4 1 1 3 4 5 7 8 9 11 12 14 16 13 10 11 11 11 10 12 16 16 16 15 14 14 14 13 15 14 13 11 9 8 7 8 8 9 6 6 5
6 6 6 4 1 2 4 5 7 8 8 10 12 14 16 14 15 14 12 11 10 11 14 16 16 15 15 13 13 14 14 15 14 15 12 10 10 5 7 8 7 6 5
5 5 5 4 3 1 3 5 7 8 8 10 12 12 13 11 12 14 13 12 12 12 11 16 17 17 16 16 14 13 14 13 15 17 15 11 10 9 8 8 6 5 6
5 5 5 4 4 2 1 4 7 8 8 10 11 11 13 13 14 13 13 12 12 10 12 14 16 17 17 17 16 14 16 14 15 15 15 13 10 9 8 7 8 7 7
5 5 4 4 3 3 3 3 5 7 8 8 9 9 11 12 13 12 14 14 14 12 11 13 15 16 16 17 17 14 14 16 15 12 14 14 11 9 9 9 8 9 9
3 3 4 5 5 4 4 4 5 5 5 6 7 8 9 10 11 12 14 13 12 12 14 14 14 15 16 17 17 17 16 18 16 15 16 16 14 11 10 9 9 10 9
2 3 4 6 6 6 6 6 5 5 5 5 6 7 8 8 9 11 12 11 12 12 13 13 14 15 16 16 18 19 18 18 18 17 16 17 14 15 11 10 11 10 10
3 3 5 6 7 7 7 7 6 5 5 5 6 7 8 8 9 10 10 10 11 11 11 12 14 15 15 15 17 17 18 18 18 17 17 16 16 16 13 12 11 10 10
4 4 5 6 7 7 7 7 7 6 6 6 6 8 9 9 9 10 9 9 10 11 11 12 13 13 13 13 14 15 16 16 16 16 16 16 17 16 15 13 13 11 11
6 6 7 7 8 8 8 8 8 7 7 7 8 9 9 9 9 9 9 9 9 10 10 11 11 11 11 11 12 13 14 14 14 14 15 16 20 23 18 14 12 12 11
8 8 9 9 9 9 9 8 8 8 7 8 9 10 10 10 10 9 9 9 9 9 9 10 11 11 10 18 24 17 13 13 14 14 13 15 21 26 31 30 26 21 15
9 10 10 9 9 9 9 9 8 8 8 9 10 11 11 10 9 9 9 9 9 9 10 10 10 11 13 22 25 27 14 13 13 13 12 12 15 22 16 22 29 26 29
10 9 9 9 9 9 9 9 8 9 9 10 11 11 10 10 9 9 10 10 9 9 9 9 10 10 12 21 24 25 16 11 13 13 13 13 13 14 15 13 14 14 15
10 9 9 9 9 10 9 9 9 10 10 12 11 10 9 10 10 10 11 10 9 9 9 8 9 9 11 19 22 22 9 9 12 13 13 13 13 21 25 16 14 14 13
9 9 9 10 10 10 9 10 12 12 12 12 11 10 10 11 12 12 11 10 9 9 8 8 8 9 8 15 20 21 7 9 9 9 12 21 20 23 26 16 13 14 13
10 10 10 9 9 10 10 12 13 13 12 12 11 11 10 11 12 11 10 10 8 8 8 8 7 7 9 13 19 20 8 8 8 8 9 11 24 26 26 22 13 16 14
10 10 10 10 10 10 11 14 14 14 13 12 12 11 11 10 10 11 10 9 8 8 8 7 7 5 7 11 13 19 18 14 9 8 7 10 21 24 24 19 18 21 18
10 10 11 12 11 10 11 15 16 14 13 12 12 11 11 10 10 10 11 9 8 7 7 6 6 5 4 7 15 17 18 19 11 8 13 15 19 20 16 20 21 16 8
10 10 11 14 15 13 12 13 15 14 13 13 12 11 11 11 10 8 7 8 7 7 7 6 6 5 4 4 4 5 7 12 11 8 13 18 19 15 13 12 10 7 6
10 10 11 14 16 15 14 13 13 13 13 13 12 11 10 11 10 9 8 9 8 9 9 7 6 6 6 7 11 7 5 5 6 6 4 5 5 6 6 5 6 5 5
12 12 12 14 16 15 15 13 12 12 13 12 11 9 9 9 9 10 9 11 13 17 17 16 13 9 13 15 14 14 14 14 13 9 5 6 7 7 7 6 6 6 6
Wind_Direction
311 237 187 182 177 178 181 182 185 187 186 191 196 200 207 206 204 202 200 199 198 198 198 201 200 197 197 197 195 191 199 204 190 210 263 257 239 235 231 222 220 223 224
354 1 141 163 171 177 183 185 188 188 193 198 199 201 200 206 211 210 209 204 202 200 203 204 202 201 200 199 198 193 193 200 187 177 195 266 266 236 227 212 212 218 219
9 4 63 149 165 179 186 192 192 192 194 191 184 192 199 210 215 214 214 210 206 205 205 206 205 204 202 206 203 196 194 201 199 187 174 194 226 260 244 217 215 214 216
26 19 31 149 180 191 186 190 192 193 191 188 195 198 206 217 220 216 215 212 212 212 210 208 208 208 207 208 207 203 199 191 198 202 207 202 179 184 257 266 228 218 220
32 26 19 204 195 187 185 190 195 200 194 196 202 208 221 228 227 219 221 218 217 216 215 212 211 213 212 211 208 206 203 203 202 197 187 211 222 205 197 239 238 234 228
30 25 27 37 177 178 183 190 201 212 205 204 208 214 225 228 227 226 227 223 220 218 217 215 215 216 216 214 212 210 208 208 208 205 197 184 188 201 205 220 226 230 232
33 22 17 6 327 196 198 200 210 223 217 215 218 222 227 229 233 234 233 230 228 224 219 215 217 217 218 215 211 213 214 210 208 210 212 207 207 187 192 210 222 230 233
35 25 21 12 2 291 210 208 218 228 224 223 227 229 230 230 236 236 235 235 235 230 217 214 217 217 215 216 213 216 217 214 215 215 213 214 212 205 201 203 205 232 235
34 22 16 18 8 355 266 222 223 231 228 227 230 232 232 233 237 237 236 240 241 235 221 216 216 216 215 214 213 218 218 217 217 218 215 216 214 210 209 205 201 208 231
30 14 4 357 345 330 300 266 237 235 234 229 229 236 236 237 239 238 239 240 240 236 230 222 218 216 215 213 214 218 216 217 219 215 216 217 215 213 211 211 212 213 225
22 0 352 346 338 333 316 294 269 258 251 241 239 242 245 243 243 243 244 243 242 236 234 230 223 219 216 214 216 218 214 218 219 216 216 217 212 212 213 211 213 218 221
7 355 350 343 336 333 324 315 302 285 272 260 255 255 256 255 252 252 252 247 245 240 236 233 229 225 220 216 216 219 217 218 220 218 216 217 212 214 212 212 216 219 219
345 348 349 338 332 328 321 318 318 315 304 290 276 271 268 263 259 258 258 253 249 245 239 234 234 231 225 219 218 218 218 218 219 217 216 215 211 215 213 214 218 221 225
332 341 337 329 325 319 318 318 317 313 310 307 295 283 275 269 265 264 262 259 254 250 245 239 237 234 229 223 219 218 219 219 219 217 215 214 213 215 213 216 219 219 223
334 340 334 325 320 319 318 317 313 309 309 305 297 288 283 280 275 272 268 264 259 255 250 246 242 236 229 225 219 217 218 218 219 217 215 215 217 219 218 218 217 217 220
339 336 329 322 320 318 315 314 309 306 307 302 294 291 287 283 277 273 271 268 265 260 254 248 245 239 234 239 235 226 218 217 217 218 217 219 226 229 229 228 226 219 218
335 327 322 319 316 314 312 309 304 306 305 297 292 290 287 285 281 278 278 274 270 263 258 253 247 244 240 243 244 239 224 215 216 216 214 218 223 227 228 235 238 235 233
328 322 317 314 310 308 307 304 306 306 302 297 293 291 292 293 293 291 286 282 275 268 263 258 251 248 245 248 248 245 234 218 215 214 213 215 219 220 220 222 230 235 239
320 316 313 311 310 308 308 311 310 306 301 297 295 297 300 300 298 293 288 285 281 275 267 263 255 250 250 251 252 246 230 221 218 214 212 214 217 226 228 224 225 232 237
315 313 311 309 309 310 315 315 309 304 299 298 299 301 301 299 296 292 290 286 280 277 274 269 260 253 250 253 254 248 229 223 218 212 214 222 223 227 231 227 222 229 232
312 312 311 309 307 312 316 308 304 300 300 301 301 299 296 294 293 293 290 288 283 280 276 273 266 256 252 257 255 251 232 220 219 215 213 219 229 231 232 231 226 234 234
312 312 311 307 307 311 311 305 302 301 301 300 299 298 296 296 298 295 293 289 286 283 280 277 275 261 256 256 256 253 246 232 219 218 214 217 226 232 235 236 237 240 242
310 312 310 308 307 307 305 302 302 303 303 302 300 299 298 297 296 295 294 293 287 281 279 276 276 272 251 254 257 256 252 244 229 216 220 223 229 231 235 239 240 241 232
311 311 310 308 307 306 300 297 301 304 303 302 301 300 300 299 296 291 287 286 284 280 278 275 274 271 259 245 240 244 250 247 240 226 228 231 232 229 226 232 238 229 219
305 304 303 303 304 305 304 303 303 305 304 303 301 301 298 297 297 291 284 282 271 272 279 272 262 267 266 253 249 237 226 221 227 212 203 211 213 214 214 213 215 215 222
304 304 302 301 303 305 304 304 306 306 306 305 303 300 299 297 294 293 291 281 277 286 284 278 273 264 264 268 262 253 243 236 229 224 212 215 214 217 217 215 213 212 217